Change the Weather History Date:

Saturday, April 6, 2013

  Actual Average (PASK) Record (PASK)
Temperature  
Mean Temperature 2 °F -  
Max Temperature -6 °F 17 °F 35 °F (1997)
Min Temperature -2 °F 4 °F -20 °F (2005)
Degree Days  
Heating Degree Days 62    
Moisture  
Dew Point -14 °F    
Average Humidity 47    
Maximum Humidity 54    
Minimum Humidity 40    
Precipitation  
Precipitation 0.00 in - - ()
Sea Level Pressure  
Sea Level Pressure 30.17 in    
Wind  
Wind Speed 14 mph (NE)    
Max Wind Speed 25 mph    
Max Gust Speed 37 mph    
Visibility 10 miles    
Events      
Averages and records for this station are not official NWS values.
T = Trace of Precipitation, MM = Missing Value Source: NWS Daily Summary

Daily Weather History Graph

Daily Weather History Graph

Search for Another Location

Airport or City:

Trip Planner

Search our weather history database for the weather conditions in past years. The results will help you decide how hot, cold, wet, or windy it might be!

Date:

Astronomy

Apr. 06, 2013 Rise Set
Actual Time 7:31 AM AKDT 9:59 PM AKDT
Civil Twilight 6:32 AM AKDT 10:58 PM AKDT
Nautical Twilight 5:08 AM AKDT 12:24 AM AKDT
Astronomical Twilight 3:16 AM AKDT 2:11 AM AKDT
Moon 6:48 AM AKDT (4/6) 5:24 PM AKDT (4/6)
Length of Visible Light 16h 26m
Length of Day
14h 27m
Waning Crescent, 14% of the Moon is Illuminated
Apr 6
Waning Crescent
Apr 10
New
Apr 18
First Quarter
Apr 25
Full
May 2
Last Quarter

Hourly Weather History & Observations

Time (AKDT) Temp. Windchill Dew Point Humidity Pressure Visibility Wind Dir Wind Speed Gust Speed Precip Events Conditions
12:01 AM 5.0 °F -11.6 °F -9.9 °F 50% 30.25 in 10.0 mi ENE 12.7 mph - N/A   Clear
1:01 AM 3.9 °F -19.0 °F -11.9 °F 48% 30.24 in 10.0 mi NNE 25.3 mph 36.8 mph N/A   Clear
2:01 AM 3.9 °F -15.6 °F -11.9 °F 48% 30.21 in 10.0 mi NE 17.3 mph 32.2 mph N/A   Clear
3:01 AM 1.9 °F -20.7 °F -14.1 °F 47% 30.20 in 10.0 mi NNE 23.0 mph 33.4 mph N/A   Clear
4:01 AM -0.0 °F -7.9 °F -14.1 °F 52% 30.23 in 10.0 mi Variable 3.5 mph - N/A   Clear
5:01 AM -0.0 °F -16.3 °F -15.0 °F 49% 30.22 in 10.0 mi NE 10.4 mph 16.1 mph N/A   Clear
6:01 AM -0.0 °F -17.1 °F -15.0 °F 49% 30.20 in 10.0 mi ENE 11.5 mph 20.7 mph N/A   Mostly Cloudy
7:01 AM -2.0 °F -24.4 °F -16.1 °F 51% 30.18 in 10.0 mi ENE 19.6 mph 28.8 mph N/A   Clear
8:01 AM -2.9 °F -25.0 °F -18.0 °F 49% 30.21 in 10.0 mi NE 18.4 mph 31.1 mph N/A   Clear
9:01 AM -2.9 °F -25.0 °F -18.0 °F 49% 30.18 in 10.0 mi NE 18.4 mph 25.3 mph N/A   Clear
10:01 AM -2.0 °F -22.6 °F -17.0 °F 49% 30.20 in 10.0 mi NE 16.1 mph 21.9 mph N/A   Clear
11:01 AM -0.0 °F -16.3 °F -17.0 °F 45% 30.19 in 10.0 mi NE 10.4 mph - N/A   Clear
12:01 PM -0.0 °F -18.0 °F -16.1 °F 47% 30.19 in 10.0 mi NE 12.7 mph 24.2 mph N/A   Clear
1:01 PM 3.0 °F -15.5 °F -16.1 °F 41% 30.19 in 10.0 mi NE 15.0 mph 23.0 mph N/A   Clear
2:01 PM 3.9 °F -13.0 °F -14.1 °F 43% 30.18 in 10.0 mi NE 12.7 mph 24.2 mph N/A   Clear
3:01 PM 5.0 °F -8.1 °F -13.0 °F 43% 30.17 in 10.0 mi ENE 8.1 mph - N/A   Clear
4:01 PM 7.0 °F -6.6 °F -13.0 °F 40% 30.14 in 10.0 mi NE 9.2 mph 23.0 mph N/A   Clear
5:01 PM 7.0 °F -8.3 °F -11.9 °F 42% 30.13 in 10.0 mi NE 11.5 mph - N/A   Clear
6:01 PM 6.1 °F -8.7 °F -11.9 °F 44% 30.12 in 10.0 mi East 10.4 mph - N/A   Clear
7:01 PM 5.0 °F -13.0 °F -11.9 °F 46% 30.11 in 10.0 mi ENE 15.0 mph 19.6 mph N/A   Clear
8:01 PM 5.0 °F -9.1 °F -11.9 °F 46% 30.10 in 10.0 mi ENE 9.2 mph - N/A   Clear
9:01 PM 3.0 °F -12.5 °F -13.0 °F 47% 30.09 in 10.0 mi NE 10.4 mph - N/A   Clear
10:01 PM -0.0 °F -13.0 °F -14.1 °F 52% 30.10 in 10.0 mi NNE 6.9 mph - N/A   Clear
11:01 PM -2.0 °F -10.1 °F -15.0 °F 54% 30.11 in 10.0 mi SSE 3.5 mph - N/A   Clear